Voltar ao catálogo

STARLINK-30205

AtivoComunicaçõesVLEO
NORAD 57408·PAYLOAD·🇺🇸 United States

Lançado Jul 20, 2023 de Vandenberg Space Force Base

Loading…

Próximas Passagens (próximas 24 horas)

TLE

AtualizadoSource: CelesTrak SupGP

Época: Sep 14, 2026, 22:31 UTC

1 57408C 23102E   26257.93868056  .00070921  00000+0  22380-2 0  2571
2 57408  43.0016 259.0461 0004357 102.4051 203.7600 15.31989515    15

Acompanhe STARLINK-30205 em tempo real com AllMySat

Download on the App Store